Portada
METAR-TAF:

METAR-TAF

Aeroports :

Millington, Tennessee, Estats Units d'Amèrica

latitud: 35-21-24N, longitud: 089-52-13W, altitud: 98 m

Observació

L'informe es va fer fa 55 minuts, a les 12:15 UTC
Vent calma
Temperatura 25°C
Humitat 89%
Pressió 1019 hPa
Visibilitat: 16.1 km
Cel clar

METAR: KNQA 221215Z AUTO 00000KT 10SM CLR 25/23 A3009 RMK A01

Hora: 08:10 (13:10 UTC)


TAF: manca

Observacions i pronòstics meteorològics de més de 4000 aeroports (METAR i TAF).

Les estacions disponibles són els punts grocs i vermells al mapa.

Posi el ratolí al punt desitjat per veure el nom de l'estació.

Feu clic per veure les observacions i els pronòstics meteorològics.

Per canviar el mapa: feu clic els botons verds amb una creu de color negre per apropar; al botó verd amb un guió per allunyar la imatge; o en les fletxes verdes per a mapes adjacents.


METAR-TAF: